"2009-12-24 00:00:00",1529564,9.86,59.43,4.457,0.8,1.655,97.91237,-6.017,-4.722,95.7,0,109.2,13.74,-5.29,21.4
"2009-12-24 00:00:30",1529565,10.97,64.78,2.846,0.715,1.832,97.91125,-6.02,-4.737,95.8,0,109.2,13.74,-5.29,26.8
"2009-12-24 00:01:00",1529566,10.38,61.46,3.836,0.749,1.724,97.91237,-6.017,-4.738,95.8,0,109.2,13.74,-5.29,23.5
"2009-12-24 00:01:30",1529567,11.71,65.21,3.715,0.647,1.738,97.91209,-6.018,-4.725,95.8,0,109.2,13.74,-5.29,27.2
"2009-12-24 00:02:00",1529568,11.14,65.36,5.235,0.727,1.814,97.91347,-6.015,-4.746,95.7,0,109.2,13.74,-5.28,27.4
"2009-12-24 00:02:30",1529569,10.24,64.24,6.353,0.98,1.939,97.91288,-6.016,-4.744,95.7,0,109.2,13.74,-5.29,26.2
"2009-12-24 00:03:00",1529570,9.19,58.06,4.301,0.671,2.041,97.91283,-6.016,-4.741,95.7,0,109.1,13.74,-5.29,20.1
"2009-12-24 00:03:30",1529571,8.98,61.06,5.331,0.655,1.967,97.91485,-6.011,-4.741,95.8,0,109.2,13.74,-5.28,23.1
"2009-12-24 00:04:00",1529572,9.5,62.35,4.341,0.704,1.851,97.91626,-6.007,-4.764,95.8,0,109.2,13.74,-5.28,24.3
"2009-12-24 00:04:30",1529573,10.36,63.07,4.923,0.938,1.84,97.91709,-6.005,-4.741,95.8,0,109.2,13.74,-5.27,25.1
"2009-12-24 00:05:00",1529574,11.08,60.83,3.731,0.807,1.731,97.91599,-6.008,-4.737,95.8,0,109.2,13.74,-5.28,22.8
"2009-12-24 00:05:30",1529575,11.49,63.19,4.067,0.692,1.76,97.91626,-6.007,-4.728,95.8,0,109.2,13.74,-5.28,25.2
"2009-12-24 00:06:00",1529576,11.44,62.77,4.021,0.753,1.834,97.91541,-6.01,-4.755,95.8,0,109.2,13.74,-5.28,24.8
"2009-12-24 00:06:30",1529577,10.39,65.84,5.16,0.676,1.922,97.90519,-6.036,-4.753,95.8,0,109.2,13.74,-5.30,27.8
"2009-12-24 00:07:00",1529578,9.84,60.77,4.893,0.447,1.892,97.89524,-6.061,-4.739,95.8,0,109.2,13.74,-5.33,22.8
"2009-12-24 00:07:30",1529579,9.34,61.45,4.49,0.689,1.842,97.89159,-6.07,-4.753,95.8,0,109.2,13.74,-5.34,23.5
"2009-12-24 00:08:00",1529580,9.67,61.35,6.025,0.652,1.88,97.89296,-6.067,-4.772,95.8,0,109.2,13.74,-5.34,23.3
"2009-12-24 00:08:30",1529581,10.68,67.78,3.885,0.701,2,97.89185,-6.07,-4.767,95.8,0,109.2,13.74,-5.34,29.8
"2009-12-24 00:09:00",1529582,11.02,67.55,3.185,0.566,1.743,97.88957,-6.075,-4.77,95.8,0,109.2,13.74,-5.34,29.6
"2009-12-24 00:09:30",1529583,10.71,64.99,3.615,0.699,1.645,97.88563,-6.085,-4.76,95.8,0,109.2,13.74,-5.35,27.0
"2009-12-24 00:10:00",1529584,11.86,66.04,5.937,0.665,1.853,97.88278,-6.093,-4.773,95.8,0,109.2,13.74,-5.36,28.0
"2009-12-24 00:10:30",1529585,11.58,60.2,4.633,0.715,1.989,97.88222,-6.094,-4.778,95.8,0,109.2,13.74,-5.36,22.2
"2009-12-24 00:11:00",1529586,11.02,59.98,5.041,0.547,1.954,97.88222,-6.094,-4.8,95.8,0,109.2,13.74,-5.36,22.0
"2009-12-24 00:11:30",1529587,10.61,64.38,4.512,0.66,2.111,97.88333,-6.091,-4.779,95.8,0,109.2,13.74,-5.36,26.4
"2009-12-24 00:12:00",1529588,10.66,63.94,5.515,0.564,2.06,97.8825,-6.093,-4.79,95.8,0,109.2,13.74,-5.36,25.9
"2009-12-24 00:12:30",1529589,11.26,63.37,5.419,0.725,2.221,97.88306,-6.092,-4.796,95.8,0,109.2,13.74,-5.36,25.4
"2009-12-24 00:13:00",1529590,12.89,55.29,6.232,1.419,2.281,97.8825,-6.093,-4.798,95.8,0,109.2,13.74,-5.36,17.3
"2009-12-24 00:13:30",1529591,10.53,65.86,5.11,0.621,2.127,97.87314,-6.117,-4.806,95.8,0,109.2,13.74,-5.39,27.9
"2009-12-24 00:14:00",1529592,11.98,63.13,4.523,0.835,2.244,97.8652,-6.137,-4.815,95.8,0,109.2,13.74,-5.41,25.1
"2009-12-24 00:14:30",1529593,12.24,65.06,4.494,0.858,2.288,97.8635,-6.142,-4.832,95.7,0,109.2,13.74,-5.41,27.1
"2009-12-24 00:15:00",1529594,12.06,67.68,5.66,0.837,2.104,97.85838,-6.155,-4.846,95.7,0,109.2,13.74,-5.42,29.7
"2009-12-24 00:15:30",1529595,10.63,64.89,5.207,0.85,2.025,97.85497,-6.163,-4.853,95.7,0,109.2,13.74,-5.43,26.9
"2009-12-24 00:16:00",1529596,11.6,66.46,5.07,0.798,1.945,97.85017,-6.176,-4.865,95.7,0,109.2,13.74,-5.45,28.5
"2009-12-24 00:16:30",1529597,10.15,66.78,3.928,0.625,2.096,97.8493,-6.178,-4.868,95.7,0,109.2,13.74,-5.45,28.8
"2009-12-24 00:17:00",1529598,9.39,67.7,3.826,0.631,1.737,97.84958,-6.177,-4.862,95.7,0,109.2,13.75,-5.45,29.7
"2009-12-24 00:17:30",1529599,9.7,72.14,4.494,0.634,1.741,97.85013,-6.176,-4.846,95.7,0,109.2,13.75,-5.45,34.1
"2009-12-24 00:18:00",1529600,10.01,69.85,4.194,0.556,1.466,97.8493,-6.178,-4.874,95.7,0,109.2,13.75,-5.45,31.8
"2009-12-24 00:18:30",1529601,10.07,64.98,5.448,0.65,1.446,97.85179,-6.172,-4.882,95.7,0,109.2,13.75,-5.44,27.0
"2009-12-24 00:19:00",1529602,9.96,55.38,7.917,0.549,1.597,97.85069,-6.174,-4.89,95.7,0,109.2,13.75,-5.44,17.4
"2009-12-24 00:19:30",1529603,11.77,57.52,6.46,0.935,1.755,97.85149,-6.172,-4.869,95.7,0,109.2,13.75,-5.44,19.5
"2009-12-24 00:20:00",1529604,10.83,52.93,4.252,0.98,1.891,97.83818,-6.206,-4.91,95.7,0,109.2,13.75,-5.48,14.9
"2009-12-24 00:20:30",1529605,9.75,61.42,7.343,0.712,1.72,97.82879,-6.23,-4.903,95.7,0,109.2,13.75,-5.50,23.4
"2009-12-24 00:21:00",1529606,10.52,59.82,7.114,0.732,1.715,97.82311,-6.245,-4.927,95.7,0,109.2,13.75,-5.51,21.8
"2009-12-24 00:21:30",1529607,11.13,58.53,4.631,0.641,1.83,97.81887,-6.255,-4.924,95.6,0,109.2,13.75,-5.53,20.5
"2009-12-24 00:22:00",1529608,12.11,52.54,4.776,1.121,1.909,97.8197,-6.253,-4.947,95.6,0,109.2,13.75,-5.52,14.5
"2009-12-24 00:22:30",1529609,11.74,50.67,4.895,0.627,2.187,97.81345,-6.269,-4.95,95.6,0,109.2,13.75,-5.54,12.7
"2009-12-24 00:23:00",1529610,11.13,46.92,4.273,0.783,1.994,97.80151,-6.299,-4.965,95.6,0,109.2,13.75,-5.57,8.9
"2009-12-24 00:23:30",1529611,10.35,47.78,6.004,1.09,2.034,97.79104,-6.326,-4.98,95.6,0,109.2,13.75,-5.60,9.8
"2009-12-24 00:24:00",1529612,11,47.75,5.062,1.435,1.982,97.78594,-6.339,-4.997,95.5,0,109.2,13.75,-5.61,9.8
"2009-12-24 00:24:30",1529613,9.91,44.65,4.625,1.224,2.093,97.78706,-6.336,-5.02,95.5,0,109.2,13.75,-5.61,6.7
"2009-12-24 00:25:00",1529614,8.59,47.52,6.697,0.892,1.824,97.78622,-6.338,-5.012,95.5,0,109.2,13.75,-5.61,9.5
"2009-12-24 00:25:30",1529615,9.46,53.58,5.897,0.599,1.447,97.77854,-6.358,-5.026,95.5,0,109.2,13.75,-5.63,15.6
"2009-12-24 00:26:00",1529616,10.54,52.82,3.984,0.741,1.542,97.76067,-6.403,-5.063,95.4,0,109.2,13.76,-5.67,14.8
"2009-12-24 00:26:30",1529617,10.18,54.19,4.271,0.729,1.519,97.75443,-6.419,-5.075,95.4,0,109.2,13.75,-5.69,16.2
"2009-12-24 00:27:00",1529618,10.43,49.82,4.487,0.782,1.684,97.75301,-6.423,-5.075,95.4,0,109.2,13.75,-5.69,11.8
"2009-12-24 00:27:30",1529619,11,57.38,5.408,0.73,1.244,97.75356,-6.422,-5.084,95.4,0,109.2,13.75,-5.69,19.4
"2009-12-24 00:28:00",1529620,11,61.4,4.646,0.639,1.234,97.74676,-6.439,-5.108,95.4,0,109.2,13.74,-5.71,23.4
"2009-12-24 00:28:30",1529621,11.11,61.49,4.204,0.625,1.297,97.72463,-6.495,-5.123,95.4,0,109.2,13.74,-5.77,23.5
"2009-12-24 00:29:00",1529622,11.22,60.39,3.712,0.418,1.507,97.71953,-6.508,-5.151,95.3,0,109.2,13.74,-5.78,22.4
"2009-12-24 00:29:30",1529623,10.58,56.06,5.002,0.599,1.578,97.7079,-6.538,-5.169,95.3,0,109.2,13.75,-5.81,18.1
"2009-12-24 00:30:00",1529624,10.81,54.43,4.489,0.615,1.742,97.69032,-6.582,-5.197,95.3,0,109.2,13.74,-5.85,16.4
"2009-12-24 00:30:30",1529625,10.84,51.99,4.436,0.608,1.798,97.6855,-6.595,-5.211,95.2,0,109.2,13.74,-5.87,14.0
"2009-12-24 00:31:00",1529626,10.8,53.66,3.513,0.603,1.628,97.6855,-6.595,-5.242,95.2,0,109.2,13.75,-5.87,15.7
"2009-12-24 00:31:30",1529627,12,49.86,4.306,0.687,1.844,97.68521,-6.595,-5.24,95.2,0,109.2,13.75,-5.87,11.9
"2009-12-24 00:32:00",1529628,11.55,47.6,4.58,0.934,1.9,97.68295,-6.601,-5.266,95.2,0,109.2,13.75,-5.87,9.6
"2009-12-24 00:32:30",1529629,9.96,47.05,5.132,1.147,1.618,97.67784,-6.614,-5.29,95.2,0,109.2,13.75,-5.89,9.0
"2009-12-24 00:33:00",1529630,11.54,52.79,3.819,0.434,1.784,97.66422,-6.649,-5.293,95.2,0,109.2,13.76,-5.92,14.8
"2009-12-24 00:33:30",1529631,10.7,50.17,4.68,0.862,1.72,97.66054,-6.658,-5.286,95.3,0,109.2,13.76,-5.93,12.2
"2009-12-24 00:34:00",1529632,11.51,58.24,4.253,0.606,1.399,97.65458,-6.673,-5.313,95.2,0,109.2,13.76,-5.94,20.2
"2009-12-24 00:34:30",1529633,11.74,56.33,3.798,0.809,1.523,97.65147,-6.681,-5.324,95.2,0,109.2,13.76,-5.95,18.3
"2009-12-24 00:35:00",1529634,12.17,53.52,3.682,0.544,1.823,97.65147,-6.681,-5.337,95.2,0,109.2,13.76,-5.95,15.5
"2009-12-24 00:35:30",1529635,11.69,54.76,4,0.763,1.679,97.63473,-6.724,-5.349,95.2,0,109.2,13.76,-6.00,16.8
"2009-12-24 00:36:00",1529636,12.36,50.12,4.679,0.84,1.719,97.61884,-6.764,-5.372,95.2,0,109.2,13.76,-6.04,12.1
"2009-12-24 00:36:30",1529637,12.24,50.7,4.277,0.781,1.847,97.61742,-6.768,-5.398,95.2,0,109.2,13.76,-6.04,12.7
"2009-12-24 00:37:00",1529638,10.6,46.84,5.207,1.359,1.962,97.61685,-6.769,-5.415,95.2,0,109.2,13.76,-6.04,8.8
"2009-12-24 00:37:30",1529639,9.9,45.81,4.039,1.254,1.856,97.60097,-6.81,-5.431,95.2,0,109.2,13.76,-6.08,7.8
"2009-12-24 00:38:00",1529640,10.62,46.51,4.001,0.888,1.802,97.59331,-6.829,-5.448,95.1,0,109.2,13.76,-6.10,8.5
"2009-12-24 00:38:30",1529641,11.87,44.29,5.304,2.053,1.61,97.58481,-6.851,-5.464,95.1,0,109.2,13.76,-6.12,6.3
"2009-12-24 00:39:00",1529642,13.3,47.03,3.555,1.185,1.453,97.57658,-6.872,-5.507,95.1,0,109.1,13.76,-6.14,9.0
"2009-12-24 00:39:30",1529643,13.34,48.73,4.957,0.729,1.487,97.55134,-6.936,-5.515,95.1,0,109.2,13.76,-6.21,10.7
"2009-12-24 00:40:00",1529644,12.75,45.97,3.933,0.84,1.61,97.53829,-6.969,-5.582,95,0,109.2,13.76,-6.24,8.0
"2009-12-24 00:40:30",1529645,12.5,45.31,3.796,1.1,1.493,97.51759,-7.022,-5.604,95,0,109.2,13.76,-6.29,7.3
"2009-12-24 00:41:00",1529646,11.54,44.88,3.526,1.137,1.546,97.50056,-7.065,-5.639,95,0,109.2,13.76,-6.34,6.9
"2009-12-24 00:41:30",1529647,11.25,44.65,4.662,1.189,1.571,97.48128,-7.114,-5.688,94.9,0,109.2,13.76,-6.39,6.7
"2009-12-24 00:42:00",1529648,12.34,48.01,3.718,1.116,1.536,97.47475,-7.131,-5.706,94.9,0,109.2,13.76,-6.40,10.0
"2009-12-24 00:42:30",1529649,13.61,48.8,5.038,0.836,1.696,97.45518,-7.181,-5.743,94.9,0,109.2,13.76,-6.45,10.8
"2009-12-24 00:43:00",1529650,12.5,48.7,3.856,1.239,1.422,97.44724,-7.201,-5.786,94.9,0,109.2,13.76,-6.47,10.7
"2009-12-24 00:43:30",1529651,13.89,48.7,4.255,0.858,1.544,97.44469,-7.207,-5.807,94.8,0,109.2,13.76,-6.48,10.7
"2009-12-24 00:44:00",1529652,13.47,48.18,4.285,1.198,1.434,97.42483,-7.258,-5.83,94.9,0,109.2,13.76,-6.53,10.2
"2009-12-24 00:44:30",1529653,15.22,49.6,3.526,1.177,1.354,97.41405,-7.285,-5.866,94.8,0,109.2,13.76,-6.56,11.6
"2009-12-24 00:45:00",1529654,14.33,47.67,6.81,2.337,1.553,97.40724,-7.303,-5.886,94.8,0,109.2,13.76,-6.58,9.7
"2009-12-24 00:45:30",1529655,12.99,46.59,6.906,1.865,1.449,97.38541,-7.358,-5.91,94.8,0,109.2,13.76,-6.63,8.6
"2009-12-24 00:46:00",1529656,16.04,49.52,3.937,0.751,1.123,97.37435,-7.386,-5.963,94.8,0,109.1,13.76,-6.66,11.5
"2009-12-24 00:46:30",1529657,15.62,50.19,5.406,1.075,1.484,97.34627,-7.458,-5.99,94.7,0,109.2,13.76,-6.73,12.2
"2009-12-24 00:47:00",1529658,14.42,48.93,3.401,1.043,1.162,97.33605,-7.484,-6.035,94.7,0,109.2,13.76,-6.76,10.9
"2009-12-24 00:47:30",1529659,15.58,52.95,4.599,1.088,1.443,97.31421,-7.539,-6.078,94.6,0,109.1,13.76,-6.81,15.0
"2009-12-24 00:48:00",1529660,16.09,53.3,3.763,0.667,1.47,97.30145,-7.572,-6.118,94.6,0,109.1,13.76,-6.85,15.3
"2009-12-24 00:48:30",1529661,15.68,52.68,4.11,0.913,1.516,97.27847,-7.63,-6.152,94.5,0,109.1,13.76,-6.91,14.7
"2009-12-24 00:49:00",1529662,16.17,53.51,3.601,0.522,1.472,97.27649,-7.635,-6.215,94.5,0,109.1,13.77,-6.91,15.5
"2009-12-24 00:49:30",1529663,16.05,55.5,4.007,0.671,1.783,97.25805,-7.682,-6.248,94.5,0,109.1,13.77,-6.96,17.5
"2009-12-24 00:50:00",1529664,16.4,57.35,3.353,0.646,1.793,97.24756,-7.709,-6.285,94.5,0,109.1,13.77,-6.98,19.3
"2009-12-24 00:50:30",1529665,15.88,56.7,3.181,0.771,1.689,97.24387,-7.718,-6.292,94.5,0,109.1,13.77,-6.99,18.7
"2009-12-24 00:51:00",1529666,15.82,57.26,3.302,0.601,1.847,97.24387,-7.718,-6.315,94.5,0,109.1,13.77,-6.99,19.3
"2009-12-24 00:51:30",1529667,15.73,56.72,3.295,0.696,1.708,97.24302,-7.721,-6.319,94.6,0,109.1,13.77,-7.00,18.7
"2009-12-24 00:52:00",1529668,15.61,55.43,3.719,0.716,1.73,97.24302,-7.721,-6.323,94.6,0,109.1,13.77,-7.00,17.4
"2009-12-24 00:52:30",1529669,15.52,55.93,3.841,0.659,1.726,97.24302,-7.721,-6.331,94.6,0,109.1,13.77,-7.00,17.9
"2009-12-24 00:53:00",1529670,15.78,56.59,2.669,0.572,1.58,97.24412,-7.718,-6.366,94.6,0,109.1,13.77,-6.99,18.6
"2009-12-24 00:53:30",1529671,15.55,54.64,3.304,0.738,1.34,97.24439,-7.717,-6.356,94.6,0,109.1,13.77,-6.99,16.6
"2009-12-24 00:54:00",1529672,15.53,55.39,3.657,0.74,1.496,97.24239,-7.722,-6.375,94.6,0,109.1,13.77,-7.00,17.4
"2009-12-24 00:54:30",1529673,15.65,54.44,4.189,0.796,1.484,97.22303,-7.771,-6.382,94.6,0,109.1,13.77,-7.05,16.4
"2009-12-24 00:55:00",1529674,15.58,56.04,2.943,0.719,1.473,97.21424,-7.794,-6.411,94.6,0,109.1,13.77,-7.07,18.0
"2009-12-24 00:55:30",1529675,15.82,53.41,4.135,0.843,1.367,97.21505,-7.792,-6.425,94.5,0,109.1,13.77,-7.07,15.4
"2009-12-24 00:56:00",1529676,15.63,55.01,4.054,0.703,1.415,97.21725,-7.786,-6.457,94.5,0,109.1,13.77,-7.06,17.0
"2009-12-24 00:56:30",1529677,15.29,54.12,3.856,0.826,1.366,97.20045,-7.829,-6.463,94.5,0,109.1,13.77,-7.10,16.1
"2009-12-24 00:57:00",1529678,15.04,55.57,2.838,0.653,1.564,97.19075,-7.854,-6.482,94.5,0,109.1,13.77,-7.13,17.6
"2009-12-24 00:57:30",1529679,15.7,54.44,3.118,0.914,1.354,97.19093,-7.853,-6.505,94.5,0,109.1,13.78,-7.13,16.4
"2009-12-24 00:58:00",1529680,15.79,54.25,3.235,0.731,1.349,97.19204,-7.85,-6.514,94.5,0,109.1,13.78,-7.13,16.2
"2009-12-24 00:58:30",1529681,15.57,53.85,3.125,0.844,1.299,97.18696,-7.863,-6.542,94.4,0,109.1,13.78,-7.14,15.8
"2009-12-24 00:59:00",1529682,16.12,53.17,2.918,0.712,1.248,97.16898,-7.909,-6.568,94.4,0,109.1,13.78,-7.18,15.2
"2009-12-24 00:59:30",1529683,15.94,52.64,2.988,0.81,1.071,97.16435,-7.921,-6.584,94.4,0,109.1,13.78,-7.20,14.6
"2009-12-24 01:00:00",1529684,15.92,52.05,2.94,0.796,1.13,97.16489,-7.919,-6.599,94.4,0,109.1,13.77,-7.20,14.0
"2009-12-24 01:00:30",1529685,16.11,49.87,2.997,0.808,1.139,97.15895,-7.934,-6.612,94.4,0,109.1,13.77,-7.21,11.9
"2009-12-24 01:01:00",1529686,15.9,49.81,2.734,0.738,1.211,97.13762,-7.989,-6.638,94.4,0,109.1,13.77,-7.26,11.8
"2009-12-24 01:01:30",1529687,15.09,48.9,3.425,0.81,1.081,97.13168,-8,-6.65,94.3,0,109.1,13.77,-7.28,10.9
"2009-12-24 01:02:00",1529688,14.62,49.82,4.329,0.962,1.242,97.13194,-8,-6.648,94.3,0,109.1,13.77,-7.28,11.8
"2009-12-24 01:02:30",1529689,14.34,51.42,4.266,0.81,1.13,97.13167,-8,-6.671,94.4,0,109.1,13.77,-7.28,13.4
"2009-12-24 01:03:00",1529690,13.9,50.61,3.794,0.889,1.121,97.13249,-8,-6.668,94.4,0,109.1,13.77,-7.28,12.6
"2009-12-24 01:03:30",1529691,12.9,48.18,5.302,2.221,1.027,97.13332,-8,-6.713,94.4,0,109.1,13.77,-7.28,10.2
"2009-12-24 01:04:00",1529692,13.66,53.35,5.108,1.577,0.89,97.1333,-8,-6.712,94.4,0,109.1,13.77,-7.28,15.3
"2009-12-24 01:04:30",1529693,13.07,50.7,3.77,1.108,0.892,97.12478,-8.02,-6.731,94.4,0,109.1,13.77,-7.30,12.7
"2009-12-24 01:05:00",1529694,13.08,48.75,3.298,1.063,0.99,97.11452,-8.05,-6.727,94.5,0,109.1,13.78,-7.32,10.8
"2009-12-24 01:05:30",1529695,14.31,50.71,4.577,1.212,0.846,97.10912,-8.06,-6.736,94.5,0,109.1,13.78,-7.34,12.7
"2009-12-24 01:06:00",1529696,12.92,49.14,3.488,0.685,0.795,97.10535,-8.07,-6.752,94.5,0,109.1,13.79,-7.35,11.1
"2009-12-24 01:06:30",1529697,13.04,53.05,4.719,1.462,0.891,97.10451,-8.07,-6.751,94.5,0,109.1,13.79,-7.35,15.0
"2009-12-24 01:07:00",1529698,13.1,52.68,3.4,1.154,0.989,97.10561,-8.07,-6.758,94.5,0,109.1,13.79,-7.35,14.7
"2009-12-24 01:07:30",1529699,11.02,51.48,4.816,0.89,0.845,97.10561,-8.07,-6.753,94.6,0,109.1,13.79,-7.35,13.5
"2009-12-24 01:08:00",1529700,11.72,48.83,5.859,2.134,0.761,97.10588,-8.07,-6.754,94.6,0,109.1,13.79,-7.35,10.8
"2009-12-24 01:08:30",1529701,13.98,54.04,3.474,1.676,0.502,97.10503,-8.07,-6.791,94.6,0,109.1,13.79,-7.35,16.0
"2009-12-24 01:09:00",1529702,15.5,50.42,4.342,2.069,0.623,97.08376,-8.13,-6.787,94.6,0,109.1,13.79,-7.40,12.4
"2009-12-24 01:09:30",1529703,17.01,51.32,3.175,0.927,0.573,97.07183,-8.16,-6.826,94.5,0,109.1,13.79,-7.43,13.3
"2009-12-24 01:10:00",1529704,16.9,50.71,3.486,0.879,0.704,97.04857,-8.22,-6.855,94.5,0,109.1,13.79,-7.49,12.7
"2009-12-24 01:10:30",1529705,16.35,51.52,3.217,1.115,0.7,97.0378,-8.24,-6.894,94.4,0,109.1,13.79,-7.52,13.5
"2009-12-24 01:11:00",1529706,15.58,49.31,2.337,1.061,0.776,97.02615,-8.27,-6.932,94.3,0,109.1,13.79,-7.55,11.3
"2009-12-24 01:11:30",1529707,14.74,48.69,3.818,1.144,0.633,97.01169,-8.31,-6.948,94.3,0,109.1,13.79,-7.59,10.7
"2009-12-24 01:12:00",1529708,15.91,49.05,3.232,1.083,0.601,97.00375,-8.33,-6.972,94.2,0,109.1,13.79,-7.61,11.0
"2009-12-24 01:12:30",1529709,15.93,49.01,2.798,0.855,0.719,97.00204,-8.33,-6.992,94.2,0,109.1,13.79,-7.61,11.0
"2009-12-24 01:13:00",1529710,16.18,48.67,3.192,0.662,0.91,96.97849,-8.39,-7.014,94.2,0,109.1,13.79,-7.67,10.7
"2009-12-24 01:13:30",1529711,15.86,48.69,2.425,0.831,0.625,96.97054,-8.41,-7.035,94.2,0,109.1,13.79,-7.69,10.7
"2009-12-24 01:14:00",1529712,14.96,47.29,3.316,0.659,0.644,96.9697,-8.42,-7.072,94.2,0,109.1,13.79,-7.69,9.3
"2009-12-24 01:14:30",1529713,15.46,48.68,2.833,0.75,0.651,96.9697,-8.42,-7.068,94.2,0,109.1,13.79,-7.69,10.7
"2009-12-24 01:15:00",1529714,15.58,48.03,3.075,0.882,0.866,96.9697,-8.42,-7.071,94.2,0,109.1,13.79,-7.69,10.0
"2009-12-24 01:15:30",1529715,15.02,50.88,3.346,0.82,0.754,96.9697,-8.42,-7.092,94.2,0,109.1,13.79,-7.69,12.9
"2009-12-24 01:16:00",1529716,14.43,49.67,4.133,0.763,0.656,96.9697,-8.42,-7.106,94.2,0,109.1,13.8,-7.69,11.7
"2009-12-24 01:16:30",1529717,15.18,49.5,2.943,0.864,0.806,96.9697,-8.42,-7.109,94.2,0,109.1,13.79,-7.69,11.5
"2009-12-24 01:17:00",1529718,14.49,48.13,2.9,0.795,0.769,96.96855,-8.42,-7.115,94.2,0,109.1,13.79,-7.70,10.1
"2009-12-24 01:17:30",1529719,14.87,49.35,3.348,0.986,0.663,96.96544,-8.43,-7.14,94.3,0,109.1,13.79,-7.70,11.3
"2009-12-24 01:18:00",1529720,14.6,49.14,2.374,0.951,0.617,96.95777,-8.45,-7.124,94.3,0,109.1,13.79,-7.72,11.1
"2009-12-24 01:18:30",1529721,14.04,47.23,3.034,1.086,0.585,96.95805,-8.45,-7.149,94.3,0,109.1,13.79,-7.72,9.2
"2009-12-24 01:19:00",1529722,13.42,46.71,2.599,0.97,0.665,96.95721,-8.45,-7.153,94.4,0,109.1,13.79,-7.73,8.7
"2009-12-24 01:19:30",1529723,14.15,46.6,3.387,0.797,0.654,96.9609,-8.44,-7.136,94.4,0,109.1,13.79,-7.72,8.6
"2009-12-24 01:20:00",1529724,12.37,45.69,2.518,0.971,0.597,96.96544,-8.43,-7.138,94.4,0,109.1,13.79,-7.70,7.7
"2009-12-24 01:20:30",1529725,13.07,47.9,5.329,1.806,0.602,96.96884,-8.42,-7.148,94.4,0,109.1,13.79,-7.70,9.9
"2009-12-24 01:21:00",1529726,13.92,46.1,3.728,1.158,0.614,96.96884,-8.42,-7.153,94.4,0,109.1,13.79,-7.70,8.1
"2009-12-24 01:21:30",1529727,12.8,45.85,4.06,1.448,0.474,96.9697,-8.42,-7.15,94.5,0,109.1,13.79,-7.69,7.8
"2009-12-24 01:22:00",1529728,13.78,46.22,3.826,1.04,0.515,96.96912,-8.42,-7.138,94.5,0,109.1,13.8,-7.69,8.2
"2009-12-24 01:22:30",1529729,14.71,47.38,2.603,0.847,0.487,96.95918,-8.44,-7.156,94.5,0,109.1,13.8,-7.72,9.4
"2009-12-24 01:23:00",1529730,13.13,46.26,2.526,0.764,0.655,96.94781,-8.47,-7.156,94.5,0,109.1,13.8,-7.75,8.3
"2009-12-24 01:23:30",1529731,13.21,47.33,3.39,0.999,0.507,96.9458,-8.48,-7.167,94.5,0,109.1,13.8,-7.75,9.3
"2009-12-24 01:24:00",1529732,11.68,45.21,4.326,1.741,0.354,96.94095,-8.49,-7.169,94.5,0,109.1,13.8,-7.77,7.2
"2009-12-24 01:24:30",1529733,9.9,43.04,3.262,1.284,0.322,96.94006,-8.49,-7.187,94.5,0,109.1,13.8,-7.77,5.0
"2009-12-24 01:25:00",1529734,12.45,46.79,2.777,0.956,0.355,96.94059,-8.49,-7.181,94.5,0,109.1,13.8,-7.77,8.8
"2009-12-24 01:25:30",1529735,12.74,46.09,3.065,0.927,0.142,96.94279,-8.48,-7.179,94.5,0,109.1,13.8,-7.76,8.1
"2009-12-24 01:26:00",1529736,12.98,44.25,2.685,1.237,0.29,96.94582,-8.48,-7.178,94.5,0,109.1,13.8,-7.75,6.2
"2009-12-24 01:26:30",1529737,13.71,44.82,3.145,1.265,0.168,96.92872,-8.52,-7.208,94.5,0,109.1,13.8,-7.80,6.8
"2009-12-24 01:27:00",1529738,13.93,46.09,2.545,0.747,0.355,96.91618,-8.55,-7.231,94.4,0,109.1,13.8,-7.83,8.1
"2009-12-24 01:27:30",1529739,14.25,46.75,3.595,0.837,0.249,96.91637,-8.55,-7.248,94.3,0,109.1,13.8,-7.83,8.8
"2009-12-24 01:28:00",1529740,13.87,49.48,3.616,0.971,0.157,96.89339,-8.61,-7.276,94.2,0,109.1,13.8,-7.89,11.5
"2009-12-24 01:28:30",1529741,13.35,47.36,3.246,0.702,0.067,96.88432,-8.63,-7.302,94.1,0,109.1,13.8,-7.91,9.4
"2009-12-24 01:29:00",1529742,13.41,47.89,4.6,1.509,0.208,96.88022,-8.64,-7.326,94.1,0,109.1,13.8,-7.92,9.9
"2009-12-24 01:29:30",1529743,13.98,50.63,3.908,0.917,0.124,96.85694,-8.7,-7.36,94,0,109.1,13.8,-7.98,12.6
"2009-12-24 01:30:00",1529744,12.25,43.94,4.516,1.338,0.212,96.85411,-8.71,-7.368,94,0,109.1,13.8,-7.99,5.9
"2009-12-24 01:30:30",1529745,14.85,48.61,3.412,1.043,-0.079,96.85658,-8.7,-7.392,94,0,109.1,13.8,-7.98,10.6
"2009-12-24 01:31:00",1529746,12.69,44.68,4.074,1.835,0.152,96.85231,-8.71,-7.391,94,0,109.1,13.81,-7.99,6.7
"2009-12-24 01:31:30",1529747,13.74,47.32,3.235,1.184,-0.012,96.83439,-8.76,-7.422,94,0,109.1,13.8,-8.04,9.3
"2009-12-24 01:32:00",1529748,12.98,43.8,3.707,1.435,-0.122,96.82616,-8.78,-7.431,94,0,109.1,13.81,-8.06,5.8
"2009-12-24 01:32:30",1529749,13.89,46.49,2.79,0.837,0.043,96.81992,-8.8,-7.452,93.9,0,109.1,13.81,-8.08,8.5
"2009-12-24 01:33:00",1529750,14.33,48.91,1.846,0.765,0.061,96.79749,-8.85,-7.489,93.9,0,109.1,13.81,-8.13,10.9
"2009-12-24 01:33:30",1529751,14.18,49.16,2.887,0.905,-0.137,96.79122,-8.87,-7.52,93.8,0,109.1,13.8,-8.15,11.2
"2009-12-24 01:34:00",1529752,14.41,48.57,3.02,0.815,-0.214,96.79176,-8.87,-7.54,93.8,0,109.1,13.8,-8.15,10.6
"2009-12-24 01:34:30",1529753,13.97,47.41,3.905,0.613,-0.022,96.78666,-8.88,-7.562,93.8,0,109.1,13.8,-8.16,9.4
"2009-12-24 01:35:00",1529754,13.06,53.58,4.109,0.871,0.313,96.77584,-8.91,-7.582,93.8,0,109.1,13.8,-8.19,15.6
"2009-12-24 01:35:30",1529755,11.76,51.61,4.444,0.457,0.125,96.77634,-8.91,-7.585,93.9,0,109.1,13.8,-8.19,13.6
"2009-12-24 01:36:00",1529756,12,55.84,3.906,0.947,0.014,96.77604,-8.91,-7.582,93.9,0,109.1,13.8,-8.19,17.8
"2009-12-24 01:36:30",1529757,14.14,49.94,4.63,0.859,-0.143,96.77406,-8.91,-7.619,94,0,109.1,13.8,-8.19,11.9
"2009-12-24 01:37:00",1529758,12.63,47.73,3.738,1.205,-0.142,96.7695,-8.92,-7.625,94,0,109.1,13.8,-8.20,9.7
"2009-12-24 01:37:30",1529759,13.8,51.42,3.321,0.712,-0.208,96.76465,-8.94,-7.638,94,0,109.1,13.8,-8.22,13.4
"2009-12-24 01:38:00",1529760,13.7,50.7,3.725,0.772,-0.061,96.76293,-8.94,-7.629,94,0,109.1,13.8,-8.22,12.7
"2009-12-24 01:38:30",1529761,12.18,49.47,3.901,0.983,-0.304,96.76266,-8.94,-7.644,94,0,109.1,13.81,-8.22,11.5
"2009-12-24 01:39:00",1529762,13.03,52.22,2.555,1.025,-0.207,96.7615,-8.95,-7.657,94,0,109.1,13.81,-8.22,14.2
"2009-12-24 01:39:30",1529763,13.09,49.93,3.518,1.033,-0.286,96.74332,-8.99,-7.668,94,0,109.1,13.81,-8.27,11.9
"2009-12-24 01:40:00",1529764,12.15,53.48,3.243,0.822,-0.323,96.73168,-9.02,-7.682,94,0,109.1,13.81,-8.30,15.5
"2009-12-24 01:40:30",1529765,12.08,56.08,3.398,0.532,-0.249,96.7297,-9.03,-7.687,94,0,109.1,13.81,-8.31,18.1
"2009-12-24 01:41:00",1529766,12.31,53.26,4.913,0.541,-0.083,96.72997,-9.03,-7.72,94,0,109.1,13.81,-8.31,15.3
"2009-12-24 01:41:30",1529767,11.94,50.11,3.616,0.783,-0.333,96.72997,-9.03,-7.715,94.1,0,109.1,13.81,-8.31,12.1
"2009-12-24 01:42:00",1529768,11.17,50.43,4.653,0.989,-0.497,96.73024,-9.02,-7.728,94.1,0,109.1,13.81,-8.30,12.4
"2009-12-24 01:42:30",1529769,11.99,52.01,2.933,0.891,-0.677,96.72968,-9.03,-7.754,94.1,0,109,13.81,-8.31,14.0
"2009-12-24 01:43:00",1529770,12.1,57.85,3.749,0.624,-0.426,96.71748,-9.06,-7.764,94.1,0,109.1,13.81,-8.34,19.8
"2009-12-24 01:43:30",1529771,12.08,58.86,3.392,0.883,-0.386,96.7064,-9.09,-7.769,94.1,0,109.1,13.81,-8.37,20.9
"2009-12-24 01:44:00",1529772,13.82,59.59,4.134,0.651,-0.532,96.70412,-9.09,-7.775,94.1,0,109.1,13.81,-8.37,21.6
"2009-12-24 01:44:30",1529773,13.89,57.87,4.241,0.811,-0.405,96.69703,-9.11,-7.781,94.1,0,109,13.81,-8.39,19.9
"2009-12-24 01:45:00",1529774,14.86,54.82,3.043,0.672,-0.184,96.69617,-9.11,-7.796,94.1,0,109,13.81,-8.39,16.8
"2009-12-24 01:45:30",1529775,15.66,53.22,3.255,0.974,-0.426,96.69561,-9.11,-7.813,94.1,0,109.1,13.81,-8.39,15.2
"2009-12-24 01:46:00",1529776,17.06,56.27,4.012,0.642,-0.39,96.6729,-9.17,-7.82,94,0,109,13.81,-8.45,18.3
"2009-12-24 01:46:30",1529777,17,57.99,3.762,0.64,-0.227,96.65247,-9.22,-7.881,93.8,0,109.1,13.82,-8.50,20.0
"2009-12-24 01:47:00",1529778,15.48,59.29,3.638,0.642,-0.261,96.62721,-9.29,-7.915,93.6,0,109,13.81,-8.57,21.3
"2009-12-24 01:47:30",1529779,14.81,56.2,3.701,0.628,-0.374,96.59883,-9.36,-7.967,93.4,0,109.1,13.82,-8.64,18.2